Kozani, Greece

12:53 PM EEST on June 26, 2017 (GMT +0300)
Kozani

Weather History for LGKZ - October, 2012

Change the Weather History Date:

Monday, October 22, 2012

  Actual Average Record
Temperature  
Mean Temperature 58 °F -  
Max Temperature 69 °F - - ()
Min Temperature 48 °F - - ()
Degree Days  
Heating Degree Days 6    
Growing Degree Days 8 (Base 50)    
Moisture  
Dew Point 39 °F    
Average Humidity 52    
Maximum Humidity 71    
Minimum Humidity 31    
Precipitation  
Precipitation 0.00 in - - ()
Sea Level Pressure  
Sea Level Pressure 30.08 in    
Wind  
Wind Speed 5 mph ()    
Max Wind Speed 12 mph    
Max Gust Speed -    
Visibility 6.2 miles    
Events      
T = Trace of Precipitation, MM = Missing Value Source: Averaged Metar Reports

Daily Weather History Graph

Daily Weather History Graph

Search for Another Location

Airport or City:

Trip Planner

Search our weather history database for the weather conditions in past years. The results will help you decide how hot, cold, wet, or windy it might be!

Date:

Astronomy

Oct. 22, 2012 Rise Set
Actual Time 7:51 AM EEST 6:42 PM EEST
Civil Twilight 7:23 AM EEST 7:10 PM EEST
Nautical Twilight 6:51 AM EEST 7:41 PM EEST
Astronomical Twilight 6:20 AM EEST 8:13 PM EEST
Moon 2:39 PM EEST (10/22) 12:17 AM EEST (10/22)
Length of Visible Light 11h 46m
Length of Day
10h 51m
First Quarter, 53% of the Moon is Illuminated
Oct 22
First Quarter
Oct 29
Full
Nov 7
Last Quarter
Nov 14
New
Nov 20
First Quarter

Hourly Weather History & Observations

Time (EEST) Temp. Dew Point Humidity Pressure Visibility Wind Dir Wind Speed Gust Speed Precip Events Conditions
12:20 AM 51.8 °F 41.0 °F 67% 30.09 in - NNW 6.9 mph - N/A   Unknown
12:50 AM 51.8 °F 41.0 °F 67% 30.09 in - NW 8.1 mph - N/A   Unknown
1:20 AM 53.6 °F 39.2 °F 58% 30.09 in - North 5.8 mph - N/A   Unknown
1:50 AM 51.8 °F 41.0 °F 67% 30.09 in - NNW 5.8 mph - N/A   Unknown
2:20 AM 53.6 °F 39.2 °F 58% 30.09 in - NNW 6.9 mph - N/A   Unknown
2:50 AM 50.0 °F 39.2 °F 66% 30.09 in - Variable 2.3 mph - N/A   Unknown
3:20 AM 50.0 °F 39.2 °F 66% 30.09 in - Variable 3.5 mph - N/A   Unknown
3:50 AM 50.0 °F 41.0 °F 71% 30.09 in - Variable 3.5 mph - N/A   Unknown
4:20 AM 50.0 °F 41.0 °F 71% 30.09 in - NNW 4.6 mph - N/A   Unknown
4:50 AM 50.0 °F 41.0 °F 71% 30.09 in - NW 5.8 mph - N/A   Unknown
5:20 AM 50.0 °F 39.2 °F 66% 30.09 in - Variable 3.5 mph - N/A   Unknown
5:50 AM 48.2 °F 39.2 °F 71% 30.09 in - Variable 3.5 mph - N/A   Unknown
6:20 AM 50.0 °F 39.2 °F 66% 30.09 in - Variable 1.2 mph - N/A   Unknown
6:50 AM 48.2 °F 39.2 °F 71% 30.09 in - Variable 3.5 mph - N/A   Unknown
7:20 AM 50.0 °F 37.4 °F 62% 30.09 in - Variable 2.3 mph - N/A   Unknown
7:50 AM 50.0 °F 37.4 °F 62% 30.09 in - North 6.9 mph - N/A   Unknown
8:20 AM 51.8 °F 37.4 °F 58% 30.09 in - NNW 8.1 mph - N/A   Unknown
8:50 AM 53.6 °F 37.4 °F 54% 30.09 in - NNW 6.9 mph - N/A   Unknown
9:20 AM 55.4 °F 37.4 °F 51% 30.09 in - NW 9.2 mph - N/A   Unknown
9:50 AM 57.2 °F 35.6 °F 44% 30.09 in - North 10.4 mph - N/A   Unknown
10:20 AM 57.2 °F 35.6 °F 44% 30.09 in - North 9.2 mph - N/A   Unknown
10:50 AM 59.0 °F 37.4 °F 45% 30.09 in - NNW 10.4 mph - N/A   Unknown
11:20 AM 59.0 °F 37.4 °F 45% 30.09 in - NNW 11.5 mph - N/A   Unknown
11:50 AM 60.8 °F 37.4 °F 42% 30.09 in - North 10.4 mph - N/A   Unknown
12:20 PM 62.6 °F 37.4 °F 39% 30.09 in - NNW 9.2 mph - N/A   Unknown
12:50 PM 64.4 °F 39.2 °F 40% 30.09 in - North 9.2 mph - N/A   Unknown
1:20 PM 66.2 °F 37.4 °F 35% 30.06 in - North 6.9 mph - N/A   Unknown
1:50 PM 68.0 °F 37.4 °F 33% 30.06 in - NNW 5.8 mph - N/A   Unknown
2:20 PM 68.0 °F 37.4 °F 33% 30.06 in - West 4.6 mph - N/A   Unknown
2:50 PM 69.8 °F 37.4 °F 31% 30.04 in 6.2 mi NW 4.6 mph - N/A   Partly Cloudy
3:50 PM 69.8 °F 37.4 °F 31% 30.04 in 6.2 mi NNW 4.6 mph - N/A   Scattered Clouds
4:50 PM 69.8 °F 37.4 °F 31% 30.04 in 6.2 mi Calm Calm - N/A   Scattered Clouds
5:50 PM 66.2 °F 41.0 °F 40% 30.04 in 6.2 mi Calm Calm - N/A   Scattered Clouds
6:50 PM 62.6 °F 41.0 °F 45% 30.04 in 6.2 mi Calm Calm - N/A   Scattered Clouds
7:50 PM 60.8 °F 41.0 °F 48% 30.06 in 6.2 mi Calm Calm - N/A   Scattered Clouds
8:50 PM 60.8 °F 39.2 °F 45% 30.06 in 6.2 mi Calm Calm - N/A   Scattered Clouds
9:20 PM 59.0 °F 39.2 °F 48% 30.06 in - Variable 3.5 mph - N/A   Unknown
9:50 PM 59.0 °F 39.2 °F 48% 30.06 in - NNW 4.6 mph - N/A   Unknown
10:20 PM 59.0 °F 39.2 °F 48% 30.06 in - NW 6.9 mph - N/A   Unknown
10:50 PM 60.8 °F 41.0 °F 48% 30.06 in - NNW 5.8 mph - N/A   Unknown
11:20 PM 59.0 °F 42.8 °F 55% 30.06 in - NNW 5.8 mph - N/A   Unknown
11:50 PM 59.0 °F 41.0 °F 51% 30.06 in - NW 5.8 mph - N/A   Unknown